Regional Weather Roundup
Issued by NWS

Home | Current Version | Previous Version | Text Only | Print | Product List | Glossary Off
Versions: 1 2 3 4 5 6 7 8 9 10 11 12 13 14 15 16 17 18 19 20 21 22 23 24 25 26 27 28 29 30 31 32 33 34 35 36 37 38 39 40 41 42 43 44 45 46 47 48 49 50

504
ASUS43 KLOT 031403
RWRIL

ILLINOIS REGIONAL WEATHER ROUNDUP
NATIONAL WEATHER SERVICE CHICAGO/ROMEOVILLE IL
800 AM CST SAT DEC 03 2016

NOTE: "FAIR" INDICATES FEW OR NO CLOUDS BELOW 12,000 FEET WITH NO
SIGNIFICANT WEATHER AND/OR OBSTRUCTIONS TO VISIBILITY.

* THESE STATIONS ARE NOT UNDER NWS QUALITY CONTROL. THEY ALSO MAY NOT
  REPORT WEATHER SUCH AS PRECIPITATION OR FOG.

ILZ001-002-007-009-015-016-024-031500-
NORTHWEST ILLINOIS

CITY           SKY/WX    TMP DP  RH WIND       PRES   REMARKS
MOLINE         CLOUDY    34  23  64 N5        30.36S WCI  30
STERLING*      CLOUDY    32  26  78 N7        30.36S WCI  26
SAVANNA*       CLOUDY    32  25  74 CALM      30.34F
$$

ILZ003-004-008-010-011-017-018-031500-
NORTH CENTRAL ILLINOIS

CITY           SKY/WX    TMP DP  RH WIND       PRES   REMARKS
ROCKFORD       CLOUDY    32  23  69 NW10      30.36F WCI  24
FREEPORT*      CLOUDY    30  24  77 NW5       30.35F WCI  25
ROCHELLE*      CLOUDY    31  24  75 NW10      30.36S WCI  22
$$

ILZ005-006-012>014-019>023-031500-
NORTHEAST ILLINOIS

CITY           SKY/WX    TMP DP  RH WIND       PRES   REMARKS
CHICAGO-OHARE  CLOUDY    32  22  66 W9        30.35S WCI  24
CHICAGO-MIDWAY CLOUDY    33  21  61 NW9       30.36R WCI  25
AURORA         CLOUDY    33  24  69 NW8       30.36S WCI  26
LANSING*       CLOUDY    32  25  76 NW8       30.37R WCI  25
WAUKEGAN       CLOUDY    32  23  69 NW6       30.34S WCI  26
DUPAGE AIRPORT CLOUDY    32  21  64 NW7       30.35S WCI  26
KANKAKEE*      CLOUDY    34  26  71 NW6       30.37S WCI  29
WHEELING       CLOUDY    31  21  66 W7        30.36S WCI  24
MORRIS*        CLOUDY    32  27  80 NW8       30.35S WCI  25
NORTHERLY ISL    N/A     33  22  64 SW6         N/A  WCI  28
$$

LMZ740>746-031500-
SOUTHERN LAKE MICHIGAN

STATION/POSITION SKY/WX   TEMP    WIND        PRES    VSBY  WAVE
                          AIR SEA DIR/SP/G                  HT/PER
                          (F)     (DEG/KT/KT) (MB)    (MI)  (FT/S)
SOUTHERN BUOY              36 49  260/ 10/ 16 1027.3          1/ 5
HARRISON CRIB              34     290/ 11/ 14   N/A
BURNHAM HARBOR             33     280/  4/ 10   N/A
CALUMET HARBOR             32     300/  5/  9 1027.3R
BURNS HARBOR               35     280/ 11/ 16 1027.8
MICHIGAN CITY              35     240/ 10/ 13   N/A
$$

ILZ025>027-034>036-040-047-049-050-058-095>099-031500-
WEST-CENTRAL ILLINOIS

CITY           SKY/WX    TMP DP  RH WIND       PRES   REMARKS
QUINCY         CLOUDY    31  29  92 E6        30.34S WCI  25
GALESBURG*     CLOUDY    31  27  86 N3        30.34F
MACOMB*        MOCLDY    31  30  96 E3        30.37F
JACKSONVILLE*  CLOUDY    32  30  93 E6        30.35F WCI  26
PITTSFIELD*    CLOUDY    30  29  96 CALM      30.35S
$$

ILZ028>032-037-038-041>044-048-051>054-059>061-031500-
CENTRAL ILLINOIS

CITY           SKY/WX    TMP DP  RH WIND       PRES   REMARKS
PONTIAC        CLOUDY    33  28  82 NW9       30.37F WCI  25
BLOOMINGTON    CLOUDY    31  27  85 N6        30.35F WCI  25
DECATUR        CLOUDY    35  29  78 NE3       30.36F
PEORIA         PTCLDY    33  26  75 N3        30.36F
LACON*         CLOUDY    32  26  78 N7        30.36F WCI  26
LINCOLN*       CLOUDY    33  30  90 CALM      30.37S
SPRINGFIELD    MOCLDY    34  30  85 NE5       30.36F WCI  30
TAYLORVILLE    CLOUDY    33  31  94 CALM      30.37S
$$

ILZ033-039-045-046-055>057-062-063-031500-
EAST-CENTRAL ILLINOIS

CITY           SKY/WX    TMP DP  RH WIND       PRES   REMARKS
CHAMPAIGN      PTCLDY    34  26  72 N8        30.36F WCI  27
RANTOUL*       MOCLDY    33  29  86 NW5       30.36F WCI  29
MATTOON        CLOUDY    36  30  79 CALM      30.36S
PARIS*         CLOUDY    34  32  92 CALM      30.38S
$$

ILZ079-100>102-031500-
SOUTHWEST ILLINOIS

CITY           SKY/WX    TMP DP  RH WIND       PRES   REMARKS
ALTON          MOCLDY    28  28 100 CALM      30.36F
BELLEVILLE     PTCLDY    30  30 100 CALM      30.34F
CAHOKIA*       PTCLDY    31  28  89 CALM      30.36F
SPARTA*        CLEAR     29  28  96 CALM      30.36F FOG
$$

ILZ064>066-069>071-074>076-080>082-084>086-088>090-092>094-031500-
SOUTH-CENTRAL ILLINOIS

CITY           SKY/WX    TMP DP  RH WIND       PRES   REMARKS
CARBONDALE     PTCLDY    29  29 100 CALM      30.35F FOG
CAIRO*         MOSUNNY   37  32  81 E6        30.35F WCI  33
EFFINGHAM*     CLOUDY    35  34  96 NE3       30.38F
MARION         MOCLDY    30  30 100 CALM      30.36F
CENTRALIA*     PTCLDY    31  31  99 CALM      30.36F FOG
SALEM*         PTCLDY    32  30  94 CALM      30.36F FOG
METROPOLIS*    CLOUDY    36  32  86 CALM      30.37F
$$

ILZ067-068-072-073-078-083-087-091-031500-
SOUTHEAST ILLINOIS

CITY           SKY/WX    TMP DP  RH WIND       PRES   REMARKS
LAWRENCEVILLE  CLOUDY    38  33  82 N3        30.39R
FLORA*         CLOUDY    32  31  96 CALM      30.37F
FAIRFIELD*     PTCLDY    30  30  99 CALM      30.36F FOG
HARRISBURG*    PTSUNNY   31  31  99 CALM      30.37F FOG
ROBINSON*      CLOUDY    35  32  87 CALM      30.40S
CARMI*         MOSUNNY   29  29 100 CALM      30.38F FOG
$$

ABBREVIATIONS USED IN REMARKS
   TC - TEMPERATURE IN CELSIUS
  WCI - WIND CHILL INDEX
   HX - HEAT INDEX
  VSB - VISIBILITY
$$





USA.gov is the U.S. government's official web portal to all federal, state and local government web resources and services.